Grafton, ND

10:37 AM CDT on August 28, 2016 (GMT -0500)
Grafton Municipal

Weather History for KGAF - November, 2013

Change the Weather History Date:

Tuesday, November 5, 2013

  Actual Average Record
Temperature  
Mean Temperature 26 °F -  
Max Temperature 35 °F 42 °F 78 °F (1975)
Min Temperature 17 °F 26 °F -10 °F (1951)
Degree Days  
Heating Degree Days 39    
Moisture  
Dew Point 18 °F    
Average Humidity 69    
Maximum Humidity 86    
Minimum Humidity 52    
Precipitation  
Precipitation 0.00 in - - ()
Sea Level Pressure  
Sea Level Pressure 30.11 in    
Wind  
Wind Speed 11 mph (West)    
Max Wind Speed 18 mph    
Max Gust Speed 23 mph    
Visibility 10 miles    
Events      
Averages and records for this station are not official NWS values.
T = Trace of Precipitation, MM = Missing Value Source: NWS Daily Summary

Daily Weather History Graph

Daily Weather History Graph

Search for Another Location

Airport or City:

Trip Planner

Search our weather history database for the weather conditions in past years. The results will help you decide how hot, cold, wet, or windy it might be!

Date:

Astronomy

Nov. 05, 2013 Rise Set
Actual Time 7:22 AM CST 5:03 PM CST
Civil Twilight 6:48 AM CST 5:36 PM CST
Nautical Twilight 6:11 AM CST 6:13 PM CST
Astronomical Twilight 5:35 AM CST 6:50 PM CST
Moon 9:45 AM CST (11/5) 6:58 PM CST (11/5)
Length of Visible Light 10h 47m
Length of Day
9h 41m
Waxing Crescent, 7% of the Moon is Illuminated
Nov 5
Waxing Crescent
Nov 9
First Quarter
Nov 17
Full
Nov 25
Last Quarter
Dec 2
New

Hourly Weather History & Observations

Time (CST) Temp. Windchill Dew Point Humidity Pressure Visibility Wind Dir Wind Speed Gust Speed Precip Events Conditions
12:15 AM 28.4 °F 18.0 °F 17.6 °F 64% 29.99 in 10.0 mi West 12.7 mph 18.4 mph N/A   Scattered Clouds
12:35 AM 28.4 °F 17.5 °F 17.6 °F 64% 30.01 in 10.0 mi West 13.8 mph - N/A   Mostly Cloudy
12:55 AM 28.4 °F 17.5 °F 17.6 °F 64% 30.01 in 10.0 mi West 13.8 mph 21.9 mph N/A   Mostly Cloudy
1:15 AM 28.4 °F 18.0 °F 17.6 °F 64% 30.01 in 10.0 mi West 12.7 mph - N/A   Mostly Cloudy
1:35 AM 28.4 °F 19.1 °F 17.6 °F 64% 30.02 in 10.0 mi West 10.4 mph - N/A   Mostly Cloudy
1:55 AM 26.6 °F 17.5 °F 17.6 °F 69% 30.02 in 10.0 mi WSW 9.2 mph - N/A   Partly Cloudy
2:15 AM 26.6 °F 16.8 °F 17.6 °F 69% 30.03 in 10.0 mi WSW 10.4 mph - N/A   Clear
2:35 AM 26.6 °F 15.7 °F 17.6 °F 69% 30.04 in 10.0 mi WSW 12.7 mph - N/A   Clear
2:55 AM 26.6 °F 16.8 °F 17.6 °F 69% 30.04 in 10.0 mi WSW 10.4 mph - N/A   Scattered Clouds
3:15 AM 26.6 °F 16.8 °F 17.6 °F 69% 30.05 in 10.0 mi West 10.4 mph - N/A   Mostly Cloudy
3:35 AM 26.6 °F 14.3 °F 17.6 °F 69% 30.06 in 10.0 mi West 16.1 mph 19.6 mph N/A   Partly Cloudy
3:55 AM 26.6 °F 15.7 °F 17.6 °F 69% 30.06 in 10.0 mi WSW 12.7 mph 20.7 mph N/A   Clear
4:15 AM 24.8 °F 12.9 °F 15.8 °F 69% 30.07 in 10.0 mi West 13.8 mph - N/A   Clear
4:35 AM 24.8 °F 11.1 °F 17.6 °F 74% 30.07 in 10.0 mi West 18.4 mph - N/A   Clear
4:55 AM 24.8 °F 11.9 °F 17.6 °F 74% 30.08 in 10.0 mi West 16.1 mph - N/A   Clear
5:15 AM 24.8 °F 12.9 °F 17.6 °F 74% 30.09 in 10.0 mi West 13.8 mph - N/A   Clear
5:35 AM 24.8 °F 14.0 °F 17.6 °F 74% 30.09 in 10.0 mi West 11.5 mph - N/A   Clear
5:55 AM 23.0 °F 13.1 °F 17.6 °F 80% 30.09 in 10.0 mi West 9.2 mph - N/A   Clear
6:15 AM 23.0 °F 13.1 °F 17.6 °F 80% 30.10 in 10.0 mi WSW 9.2 mph - N/A   Clear
6:35 AM 23.0 °F 12.4 °F 17.6 °F 80% 30.10 in 10.0 mi WSW 10.4 mph - N/A   Clear
6:55 AM 23.0 °F 11.7 °F 17.6 °F 80% 30.10 in 10.0 mi West 11.5 mph - N/A   Clear
7:15 AM 23.0 °F 13.1 °F 17.6 °F 80% 30.10 in 10.0 mi West 9.2 mph - N/A   Clear
7:35 AM 23.0 °F 12.4 °F 17.6 °F 80% 30.10 in 10.0 mi West 10.4 mph - N/A   Clear
7:55 AM 23.0 °F 11.7 °F 17.6 °F 80% 30.11 in 10.0 mi West 11.5 mph - N/A   Clear
8:15 AM 24.8 °F 12.9 °F 17.6 °F 74% 30.12 in 10.0 mi West 13.8 mph 19.6 mph N/A   Clear
8:35 AM 24.8 °F 13.4 °F 17.6 °F 74% 30.12 in 10.0 mi West 12.7 mph - N/A   Clear
8:55 AM 24.8 °F 14.0 °F 17.6 °F 74% 30.13 in 10.0 mi West 11.5 mph - N/A   Clear
9:15 AM 26.6 °F 14.3 °F 17.6 °F 69% 30.13 in 10.0 mi WNW 16.1 mph 20.7 mph N/A   Clear
9:35 AM 26.6 °F 13.4 °F 17.6 °F 69% 30.13 in 10.0 mi West 18.4 mph 23.0 mph N/A   Clear
9:55 AM 26.6 °F 15.2 °F 17.6 °F 69% 30.13 in 10.0 mi West 13.8 mph - N/A   Clear
10:15 AM 28.4 °F 17.5 °F 17.6 °F 64% 30.15 in 10.0 mi West 13.8 mph 19.6 mph N/A   Clear
10:35 AM 28.4 °F 17.5 °F 19.4 °F 69% 30.16 in 10.0 mi West 13.8 mph - N/A   Clear
10:55 AM 30.2 °F 20.8 °F 19.4 °F 64% 30.16 in 10.0 mi WSW 11.5 mph - N/A   Clear
11:15 AM 32.0 °F 21.6 °F 19.4 °F 60% 30.17 in 10.0 mi West 15.0 mph 20.7 mph N/A   Clear
11:35 AM 32.0 °F 22.1 °F 19.4 °F 60% 30.16 in 10.0 mi WSW 13.8 mph 18.4 mph N/A   Clear
11:55 AM 32.0 °F 21.2 °F 19.4 °F 60% 30.16 in 10.0 mi West 16.1 mph 20.7 mph N/A   Clear
12:15 PM 32.0 °F 22.5 °F 19.4 °F 60% 30.15 in 10.0 mi West 12.7 mph 19.6 mph N/A   Clear
12:35 PM 32.0 °F 22.5 °F 21.2 °F 64% 30.14 in 10.0 mi West 12.7 mph 20.7 mph N/A   Clear
12:55 PM 32.0 °F 22.1 °F 19.4 °F 60% 30.14 in 10.0 mi West 13.8 mph 19.6 mph N/A   Clear
1:15 PM 32.0 °F 23.6 °F 19.4 °F 60% 30.14 in 10.0 mi West 10.4 mph - N/A   Clear
1:35 PM 33.8 °F 26.4 °F 19.4 °F 56% 30.13 in 10.0 mi WNW 9.2 mph - N/A   Clear
1:55 PM 35.6 °F 28.6 °F 21.2 °F 56% 30.13 in 10.0 mi West 9.2 mph - N/A   Clear
2:15 PM 35.6 °F 28.6 °F 19.4 °F 52% 30.13 in 10.0 mi West 9.2 mph - N/A   Clear
2:35 PM 35.6 °F 26.6 °F 19.4 °F 52% 30.12 in 10.0 mi West 13.8 mph - N/A   Clear
2:55 PM 35.6 °F 28.0 °F 19.4 °F 52% 30.13 in 10.0 mi WSW 10.4 mph - N/A   Clear
3:15 PM 33.8 °F 25.8 °F 17.6 °F 52% 30.13 in 10.0 mi WSW 10.4 mph - N/A   Clear
3:35 PM 33.8 °F 24.8 °F 17.6 °F 52% 30.13 in 10.0 mi WSW 12.7 mph - N/A   Clear
3:55 PM 32.0 °F 23.6 °F 17.6 °F 55% 30.13 in 10.0 mi West 10.4 mph - N/A   Clear
4:15 PM 33.8 °F 25.8 °F 19.4 °F 56% 30.12 in 10.0 mi West 10.4 mph - N/A   Clear
4:35 PM 32.0 °F 22.5 °F 17.6 °F 55% 30.12 in 10.0 mi West 12.7 mph - N/A   Clear
4:55 PM 32.0 °F 23.6 °F 17.6 °F 55% 30.12 in 10.0 mi West 10.4 mph - N/A   Clear
5:15 PM 32.0 °F 24.2 °F 17.6 °F 55% 30.12 in 10.0 mi West 9.2 mph - N/A   Clear
5:35 PM 32.0 °F 23.6 °F 17.6 °F 55% 30.11 in 10.0 mi West 10.4 mph - N/A   Clear
5:55 PM 30.2 °F 21.9 °F 17.6 °F 60% 30.11 in 10.0 mi NW 9.2 mph - N/A   Clear
6:15 PM 28.4 °F 19.7 °F 17.6 °F 64% 30.12 in 10.0 mi WNW 9.2 mph - N/A   Clear
6:35 PM 26.6 °F 20.0 °F 17.6 °F 69% 30.12 in 10.0 mi NW 5.8 mph - N/A   Clear
6:55 PM 26.6 °F 21.2 °F 17.6 °F 69% 30.12 in 10.0 mi WNW 4.6 mph - N/A   Clear
7:15 PM 26.6 °F 19.1 °F 17.6 °F 69% 30.12 in 10.0 mi WNW 6.9 mph - N/A   Clear
7:35 PM 26.6 °F 20.0 °F 17.6 °F 69% 30.12 in 10.0 mi WNW 5.8 mph - N/A   Clear
7:55 PM 26.6 °F 22.6 °F 17.6 °F 69% 30.12 in 10.0 mi West 3.5 mph - N/A   Clear
8:15 PM 21.2 °F 16.4 °F 14.0 °F 74% 30.12 in 10.0 mi WSW 3.5 mph - N/A   Clear
8:35 PM 21.2 °F 14.9 °F 15.8 °F 80% 30.12 in 10.0 mi WSW 4.6 mph - N/A   Clear
8:55 PM 17.6 °F 9.3 °F 12.2 °F 79% 30.12 in 10.0 mi WSW 5.8 mph - N/A   Clear
9:15 PM 19.4 °F 12.8 °F 15.8 °F 86% 30.13 in 10.0 mi West 4.6 mph - N/A   Clear
9:35 PM 23.0 °F 17.0 °F 17.6 °F 80% 30.13 in 10.0 mi NW 4.6 mph - N/A   Clear
9:55 PM 23.0 °F 17.0 °F 15.8 °F 74% 30.13 in 10.0 mi NW 4.6 mph - N/A   Clear
10:15 PM 19.4 °F 14.3 °F 14.0 °F 80% 30.14 in 10.0 mi WNW 3.5 mph - N/A   Clear
10:35 PM 19.4 °F - 15.8 °F 86% 30.14 in 10.0 mi Calm Calm - N/A   Clear
10:55 PM 21.2 °F 14.9 °F 17.6 °F 86% 30.14 in 10.0 mi West 4.6 mph - N/A   Clear
11:15 PM 19.4 °F 14.3 °F 15.8 °F 86% 30.14 in 10.0 mi West 3.5 mph - N/A   Clear
11:35 PM 19.4 °F 12.8 °F 15.8 °F 86% 30.14 in 10.0 mi West 4.6 mph - N/A   Clear
11:55 PM 17.6 °F 12.3 °F 14.0 °F 86% 30.14 in 10.0 mi West 3.5 mph - N/A   Clear